TimeMST,TemperatureF,Dew PointF,Humidity,Sea Level PressureIn,VisibilityMPH,Wind Direction,Wind SpeedMPH,Gust SpeedMPH,PrecipitationIn,Events,Conditions,WindDirDegrees,DateUTC
12:53 AM,27.0,15.1,61,29.76,10.0,NW,6.9,-,N/A,,Clear,310,2014-02-18 07:53:00
1:53 AM,26.1,14.0,60,29.78,10.0,NW,8.1,-,N/A,,Scattered Clouds,310,2014-02-18 08:53:00
2:53 AM,27.0,16.0,63,29.83,10.0,NW,6.9,-,N/A,,Overcast,310,2014-02-18 09:53:00
3:53 AM,24.1,19.0,81,29.88,10.0,NW,5.8,-,N/A,,Scattered Clouds,320,2014-02-18 10:53:00
4:53 AM,24.1,16.0,71,29.91,10.0,NW,4.6,-,N/A,,Overcast,320,2014-02-18 11:53:00
5:53 AM,25.0,14.0,63,29.94,10.0,WNW,4.6,-,N/A,,Overcast,300,2014-02-18 12:53:00
6:53 AM,21.0,12.9,71,29.99,10.0,NW,3.5,-,N/A,,Partly Cloudy,310,2014-02-18 13:53:00
7:53 AM,19.9,12.0,71,30.01,10.0,NW,10.4,-,N/A,,Clear,310,2014-02-18 14:53:00
8:53 AM,28.0,14.0,56,30.00,10.0,WSW,8.1,-,N/A,,Overcast,250,2014-02-18 15:53:00
9:53 AM,28.9,12.9,51,30.03,10.0,WSW,9.2,-,N/A,,Mostly Cloudy,240,2014-02-18 16:53:00
10:53 AM,32.0,14.0,48,30.03,10.0,West,10.4,-,N/A,,Overcast,260,2014-02-18 17:53:00
11:53 AM,34.0,17.1,50,29.99,10.0,WSW,10.4,21.9,N/A,,Mostly Cloudy,240,2014-02-18 18:53:00
3:53 PM,37.0,16.0,42,29.84,10.0,WSW,9.2,-,N/A,,Overcast,250,2014-02-18 22:53:00
4:53 PM,37.0,16.0,42,29.81,10.0,South,17.3,24.2,N/A,,Overcast,190,2014-02-18 23:53:00
5:53 PM,35.1,16.0,46,29.78,10.0,South,16.1,-,N/A,,Overcast,180,2014-02-19 00:53:00
6:53 PM,33.1,18.0,54,29.75,10.0,South,15.0,-,N/A,,Mostly Cloudy,180,2014-02-19 01:53:00
7:53 PM,34.0,18.0,52,29.72,10.0,South,12.7,23.0,N/A,,Mostly Cloudy,190,2014-02-19 02:53:00
8:53 PM,34.0,16.0,48,29.68,10.0,South,13.8,-,N/A,,Mostly Cloudy,190,2014-02-19 03:53:00
9:53 PM,32.0,18.0,56,29.64,10.0,SSE,8.1,-,N/A,,Mostly Cloudy,150,2014-02-19 04:53:00
10:53 PM,30.9,18.0,59,29.59,10.0,Variable,5.8,-,N/A,,Mostly Cloudy,0,2014-02-19 05:53:00
11:53 PM,35.1,19.9,54,29.55,10.0,South,16.1,-,N/A,,Scattered Clouds,190,2014-02-19 06:53:00